sat.trackr.live / text

‹ back to catalog

STARLINK-34559

NORAD 64706 · 2025-142L

PAYLOAD ACTIVE UNKNOWN

§ Identity

Operator
Country
US
Launch date
2025-06-28
Launch site
AFWTR
Launch vehicle
Mass (kg)
RCS (m²)

Purposes: comms

External: N2YO · Heavens-Above · Gunter

§ Orbital elements

Epoch: 2026-09-20T17:30:09.963072Z

Period
94.10 min
Inclination
70.0014°
Eccentricity
0.0003587
Mean motion
15.30206743 rev/d
Perigee alt
472.7 km
Apogee alt
477.7 km
Semi-major
6,853.3 km
B*
6.5754e-3
RAAN
180.3874°
Arg perigee
274.3738°
Mean anomaly
85.7028°
Rev number
6,876

§ Raw data

STARLINK-345591 64706U 25142L   26263.72928198  .00197739  00000+0  65754-2 0  99962 64706  70.0014 180.3874 0003587 274.3738  85.7028 15.30206743 68763

JSON: /api/v1/satellites/64706 · /tle

For live sub-satellite position, see the globe view (requires WebGL).

§ Visibility from observer

Set your observer location to see the next 7 days of passes ≥ 10°. The values pass through the URL so the page stays shareable.

No JS? Fill the form by hand. The geolocation button needs JavaScript.